DECAYED

SL-4 R/B, 63128 (Decayed)

Orbit data source: Space-Track

SL-4 R/B, 63128 was space debris in LEO originally from a launch on Thu, 27 Feb 2025 UTC launched from the Tyuratam Missile And Space Complex (TTMTR). Debris objects in space refer to the collection of defunct objects orbiting the Earth. Examples of debris include non-operational satellites, rocket bodies, and fragments generated from explosions, collisions, or faulty payload assembly.

Not visible in the next 10 days
Identifier
63128, 2025-041A
Orbit
Decayed
Country
Flag of CISCIS
Related business
Manufacturer
TsSKB-Progress
Mission
Decayed spacecraft
Bus & Motor
BLOK-I, RD-0980
Mass
~2,350 kg wet, 2,350 kg dry
Launch date (UTC)
2025-02-27 (1 year ago)
Launch vehicle
Unknown
Launch site
Tyuratam Missile And Space Complex (TTMTR)
Object type
Payload
Rocket body
Debris
Shape & HBR
Cyl, 4.5 m
Radar Cross Section
21.560 m², Large (>1 m²)

Expand to show TLE details & history
Last TLE update: 1 year ago

TLE from 1 year ago
0 SL-4 R/B
1 63128U 25041A   25060.56200597  .14847430  12564-4  23866-3 0  9990
2 63128  51.6506 119.6878 0009870 105.8204  46.7483 16.47517039   273
Epoch: 2025-03-01T13:29Z
TLE epoch observation values (Epoch: 2025-03-01T13:29:17.315Z)
Latitude
21.17208°
Longitude
-79.97842°
Altitude
141.896 km
Speed
7.827 km/s
True Right ascension
18h 47m 48s
True Declination
21° 02' 44"
Sunlit
Object was in daylight at epoch
Visualization orbit readout
Latitude
Unknown
Longitude
Unknown
Altitude
Unknown
Speed
Unknown
Apparent Right ascension
Unknown
Apparent Declination
Unknown
Sunlit
N/A
Visualization observer readout
Local Sidereal Time
07:13:05
Azimuth
Unknown
Elevation
Unknown
Doppler factor
Unknown
Orbital elements
Apogee altitude
152.849 km
Perigee altitude
139.969 km
Semi-major axis
6,524.546 km
Eccentricity
0.00099
Inclination
51.6506°
RAAN
119.6878°
Arg. of periapsis
105.8204°
True anomaly
46.83075°
Mean anomaly
46.7483°
Eccentric anomaly
46.78952°
Mean motion
4.1183 °/min
Orbital period
87.41 mins
BSTAR
0.00023866
Loading maneuver chart data...
Computing Atmospheric mass density...
Loading historical data...
Loading historical data...
Loading historical data...
Loading historical data...
Loading historical data...
Loading historical data...
Loading historical data...
Other satellites on launch #41 in the year 2025 (2025-02-27 UTC)

Documentation

Showing up to 5 results
|